User: anonymous   Login
Location: Caltech
(34.1382°N, 118.1253°W)
Time: 18:13:08
(UTC-08:00)
Language:

Cosmos 2084 - Orbit

View from above orbital plane
View from above orbital plane
View from above satellite
View from above satellite

Ground track
Ground track

The orbit data is extracted from the following two-line orbital elements,

1 20663U 90055A   17018.18363429  .00000036  00000-0  21121-4 0  9999
2 20663  62.7928   8.7387 0138043  75.2973 286.3374 14.91452597437439
Epoch (UTC): 18 January 2017 04:24:26
Eccentricity: 0.0138043
inclination: 62.7928°
perigee height: 497 km
apogee height: 689 km
right ascension of ascending node: 8.7387°
argument of perigee: 75.2973°
revolutions per day: 14.91452597
mean anomaly at epoch: 286.3374°
orbit number at epoch: 43743

The dashed part of the orbit path shows where the satellite is in the earth's shadow,  

DLR